Weather observations for the past three days for
Roanoke, Roanoke Regional Airport
Imperial (Metric)
Date Time (edt) Wind (mph) Vis. (mi.) Weather Sky Cond. Temperature (ºF) Relative Humidity Wind Chill (°F) Heat Index (°F) Pressure Precipitation (in)
Air Dwpt 6 hour altimeter (in) sea level (mb) 1 hr 3 hr 6 hr
Max. Min.
14 06:54 Vrbl 5 10.00 Fair CLR 70 62.1 76% 29.99 1014.2
14 05:54 Calm 10.00 Fair CLR 66.9 61 81% 29.98 1014.0
14 04:54 NW 3 10.00 Fair CLR 69.1 61 76% 29.98 1013.8
14 03:54 W 5 10.00 Fair CLR 71.1 61 71% 30 1014.3
14 02:54 W 3 10.00 Fair CLR 71.1 61 71% 30 1014.3
14 01:54 Calm 10.00 Fair CLR 73 62.1 84 71.1 69% 30 1014.5
14 00:54 Calm 10.00 A Few Clouds FEW060 73 64 74% 30.02 1015.1
13 23:54 Vrbl 3 10.00 Partly Cloudy SCT075 73.9 63 69% 30.03 1015.4
13 22:54 Vrbl 3 10.00 Partly Cloudy SCT070 79 62.1 56% 80 30.02 1015.3
13 21:54 S 3 10.00 Partly Cloudy FEW060 SCT080 79 61 54% 80 30.02 1015.0
13 20:54 S 7 10.00 Partly Cloudy FEW060 SCT080 82 61 49% 83 30 1014.5
13 19:54 S 10 10.00 Partly Cloudy FEW065 SCT085 84 62.1 89.1 84 48% 85 30 1014.7
13 18:54 S 9 10.00 Mostly Cloudy BKN055 86 61 43% 86 30 1014.7
13 17:54 S 12 10.00 Mostly Cloudy BKN060 86 62.1 45% 87 30 1014.6
13 16:54 S 10 G 20 10.00 Partly Cloudy SCT090 86 61 43% 86 30 1014.7
13 15:54 S 9 10.00 Partly Cloudy SCT095 88 64 45% 89 30.01 1014.9
13 14:54 S 9 10.00 Partly Cloudy SCT095 88 62.1 42% 88 30.03 1015.5
13 13:54 S 9 10.00 A Few Clouds FEW095 86 64.9 88 69.1 49% 88 30.04 1016.0
13 12:54 SE 12 10.00 A Few Clouds FEW095 84.9 64 50% 86 30.06 1016.4
13 11:54 Vrbl 5 10.00 Partly Cloudy FEW070 SCT090 81 64 57% 83 30.08 1017.2
13 10:54 Calm 10.00 Partly Cloudy SCT060 78.1 63 60% 80 30.09 1017.5
13 09:54 Calm 10.00 Mostly Cloudy BKN085 77 63 62% 79 30.1 1017.8
13 08:54 Vrbl 3 10.00 A Few Clouds FEW075 73.9 62.1 67% 30.1 1017.8
13 07:54 Calm 10.00 A Few Clouds FEW075 69.1 62.1 70 64 78% 30.09 1017.7
13 06:54 Vrbl 3 10.00 Fair CLR 64.9 60.1 84% 30.08 1017.4
13 05:54 W 3 10.00 Fair CLR 64 60.1 87% 30.06 1016.8
13 04:54 Calm 10.00 Fair CLR 66 61 84% 30.05 1016.3
13 03:54 Vrbl 3 10.00 Fair CLR 64.9 61 87% 30.03 1015.7
13 02:54 Calm 10.00 Fair CLR 68 62.1 81% 30.03 1015.7
13 01:54 Calm 10.00 Fair CLR 70 62.1 79 70 76% 30.04 1016.1
13 00:54 Calm 10.00 Fair CLR 72 62.1 71% 30.05 1016.5
12 23:54 SE 6 10.00 Overcast OVC085 73.9 62.1 67% 30.06 1016.8
12 22:54 E 6 10.00 Mostly Cloudy BKN060 75.9 62.1 62% 78 30.06 1016.8
12 21:54 SE 3 10.00 Mostly Cloudy BKN055 77 63 62% 79 30.05 1016.5
12 20:54 SE 6 10.00 Partly Cloudy FEW055 SCT080 77 62.1 60% 79 30.04 1016.1
12 19:54 SE 8 10.00 Mostly Cloudy BKN060 79 62.1 82.9 79 56% 80 30.03 1016.0
12 18:54 S 10 10.00 Partly Cloudy FEW041 SCT055 80.1 62.1 54% 81 30.03 1015.8
12 17:54 S 9 10.00 Partly Cloudy SCT048 82 61 49% 83 30.03 1015.8
12 16:54 S 12 10.00 Partly Cloudy SCT042 82 62.1 51% 83 30.03 1015.9
12 15:54 S 12 G 17 10.00 Partly Cloudy SCT045 82 62.1 51% 83 30.04 1016.2
12 14:54 Vrbl 6 10.00 Mostly Cloudy BKN060 81 61 51% 82 30.05 1016.6
12 13:54 E 7 10.00 Partly Cloudy SCT060 79 60.1 81 64 52% 80 30.06 1017.0
12 12:54 Vrbl 5 10.00 Mostly Cloudy FEW039 BKN055 78.1 60.1 54% 79 30.09 1017.8
12 11:54 Vrbl 3 10.00 Partly Cloudy SCT055 75.9 59 56% 78 30.1 1018.3
12 09:54 Calm 10.00 A Few Clouds FEW050 72 55 55% 30.12 1018.8
12 08:54 Calm 10.00 A Few Clouds FEW049 66.9 53.1 61% 30.12 1018.9
12 07:54 Vrbl 3 10.00 A Few Clouds FEW070 64 53.1 64 57 68% 30.11 1018.6
12 06:54 Calm 10.00 Mostly Cloudy BKN060 59 53.1 81% 30.1 1018.4
12 05:54 Vrbl 3 10.00 Partly Cloudy SCT080 57.9 52 81% 30.08 1017.8
12 04:54 Vrbl 3 10.00 Mostly Cloudy SCT065 BKN080 59 51.1 75% 30.08 1017.7
12 03:54 Calm 10.00 Mostly Cloudy BKN065 60.1 52 75% 30.07 1017.4
12 02:54 Vrbl 3 10.00 Fair CLR 57.9 51.1 78% 30.07 1017.2
12 01:54 Calm 10.00 A Few Clouds FEW065 60.1 51.1 73 59 72% 30.06 1017.2
12 00:54 Vrbl 3 10.00 Fair CLR 62.1 50 65% 30.06 1017.1
11 23:54 W 3 10.00 Partly Cloudy SCT070 62.1 50 65% 30.05 1016.7
11 22:54 Calm 10.00 Fair CLR 66 51.1 59% 30.04 1016.4
11 20:54 N 8 10.00 A Few Clouds FEW060 70 48.9 47% 30.01 1015.1
11 19:54 N 10 10.00 A Few Clouds FEW055 73 50 79 73 44% 29.99 1014.8
11 18:54 N 9 10.00 A Few Clouds FEW055 75.9 50 40% 78 29.98 1014.3
11 17:54 N 6 10.00 A Few Clouds FEW055 78.1 50 37% 79 29.97 1013.8
11 16:54 N 9 10.00 A Few Clouds FEW055 78.1 51.1 39% 79 29.97 1013.7
11 15:54 N 6 10.00 A Few Clouds FEW050 79 52 39% 79 29.97 1013.8
11 14:54 NW 8 10.00 A Few Clouds FEW050 79 51.1 38% 79 29.98 1014.2
11 13:54 NW 9 10.00 Partly Cloudy SCT048 75.9 50 77 63 40% 78 29.98 1014.2
11 12:54 W 12 G 16 10.00 Mostly Cloudy BKN048 73.9 51.1 45% 29.99 1014.7
11 11:54 NW 12 G 17 10.00 Mostly Cloudy BKN050 73 52 48% 30 1014.9
11 10:54 Vrbl 6 10.00 Mostly Cloudy FEW038 BKN047 69.1 51.1 53% 30 1015.0
11 09:54 NW 7 10.00 Overcast BKN040 OVC048 66.9 52 59% 30.01 1015.2
11 08:54 NE 3 10.00 Partly Cloudy SCT060 68 52 57% 29.99 1014.6
Date Time (edt) Wind (mph) Vis. (mi.) Weather Sky Cond. Air Dwpt Max. Min. Relative Humidity Wind Chill (°F) Heat Index (°F) altimeter (in) sea level (mb) 1 hr 3 hr 6 hr
6 hour
Temperature (ºF) Pressure Precipitation (in)